Weather History for Wilmington, OH

Change the Weather History Date:

Friday, March 29, 2013

  Actual Average (KDAY) Record (KDAY)
Temperature  
Mean Temperature 41 °F 45 °F  
Max Temperature 55 °F 55 °F 82 °F (1910)
Min Temperature 28 °F 35 °F 18 °F (1923)
Degree Days  
Heating Degree Days 24 20  
Month to date heating degree days 726  
Since 1 July heating degree days 5001  
Cooling Degree Days 0 0  
Month to date cooling degree days 0  
Year to date cooling degree days 0  
Moisture  
Dew Point 28 °F    
Average Humidity 62    
Maximum Humidity 92    
Minimum Humidity 37    
Precipitation  
Precipitation 0.00 in 0.12 in 1.36 in (1985)
Month to date precipitation 3.08  
Year to date precipitation 8.03  
Snow  
Snow 0.00 in 0.10 in 2.20 in (1970)
Month to date snowfall 3.3  
Since 1 July snowfall 22.6  
Snow Depth -    
Sea Level Pressure  
Sea Level Pressure 30.32 in    
Wind  
Wind Speed 2 mph (NW)    
Max Wind Speed 10 mph    
Max Gust Speed -    
Visibility 9 miles    
Events      
T = Trace of Precipitation, MM = Missing Value Source: NWS Daily Summary

Daily Weather History Graph

Daily Weather History Graph

Search for Another Location

Airport:

Trip Planner

Search our weather history database for the weather conditions in past years. The results will help you decide how hot, cold, wet, or windy it might be!

Date:

Astronomy

Mar. 29, 2013 Rise Set
Actual Time 7:23 AM EDT 7:56 PM EDT
Civil Twilight 6:57 AM EDT 8:23 PM EDT
Nautical Twilight 6:25 AM EDT 8:55 PM EDT
Astronomical Twilight 5:52 AM EDT 9:28 PM EDT
Moon 10:54 PM EDT (3/29) 8:33 AM EDT (3/29)
Length of Visible Light 13h 26m
Length of Day
12h 32m
Waning Gibbous, 93% of the Moon is Illuminated
Mar 29
Waning Gibbous
Apr 3
Last Quarter
Apr 10
New
Apr 18
First Quarter
Apr 25
Full

Hourly Weather History & Observations

Time (EDT) Temp. Windchill Dew Point Humidity Pressure Visibility Wind Dir Wind Speed Gust Speed Precip Events Conditions
12:54 AM 32.0 °F - 27.0 °F 82% 30.36 in 9.0 mi Calm Calm - N/A   Clear
1:54 AM 30.9 °F - 26.1 °F 82% 30.36 in 10.0 mi Calm Calm - N/A   Clear
2:54 AM 30.9 °F - 26.1 °F 82% 30.36 in 9.0 mi Calm Calm - N/A   Clear
3:54 AM 30.0 °F - 25.0 °F 82% 30.35 in 9.0 mi Calm Calm - N/A   Clear
4:54 AM 28.9 °F - 26.1 °F 89% 30.34 in 8.0 mi Calm Calm - N/A   Clear
5:54 AM 30.0 °F - 26.1 °F 85% 30.34 in 9.0 mi Calm Calm - N/A   Clear
6:54 AM 28.9 °F - 25.0 °F 85% 30.35 in 8.0 mi Calm Calm - N/A   Clear
7:54 AM 28.0 °F - 26.1 °F 92% 30.37 in 5.0 mi Calm Calm - N/A   Clear
8:54 AM 35.1 °F - 30.0 °F 82% 30.35 in 6.0 mi Calm Calm - N/A   Haze
9:54 AM 44.1 °F - 28.9 °F 55% 30.36 in 10.0 mi Calm Calm - N/A   Clear
10:54 AM 45.0 °F 42.6 °F 28.9 °F 53% 30.36 in 10.0 mi WSW 4.6 mph - N/A   Mostly Cloudy
11:54 AM 46.9 °F - 30.0 °F 52% 30.36 in 10.0 mi West 9.2 mph - N/A   Overcast
12:54 PM 48.0 °F - 28.0 °F 46% 30.34 in 10.0 mi West 4.6 mph - N/A   Overcast
1:54 PM 51.1 °F - 28.9 °F 43% 30.32 in 10.0 mi WNW 5.8 mph - N/A   Overcast
2:54 PM 52.0 °F - 28.0 °F 40% 30.29 in 10.0 mi Variable 3.5 mph - N/A   Clear
3:54 PM 54.0 °F - 28.9 °F 38% 30.27 in 10.0 mi Variable 4.6 mph - N/A   Mostly Cloudy
4:54 PM 53.1 °F - 27.0 °F 37% 30.26 in 10.0 mi WSW 10.4 mph - N/A   Overcast
5:54 PM 52.0 °F - 27.0 °F 38% 30.25 in 10.0 mi NW 6.9 mph - N/A   Overcast
6:54 PM 51.1 °F - 27.0 °F 39% 30.26 in 10.0 mi WNW 4.6 mph - N/A   Overcast
7:54 PM 50.0 °F - 28.0 °F 43% 30.26 in 10.0 mi NW 5.8 mph - N/A   Overcast
8:54 PM 46.0 °F 43.9 °F 30.0 °F 54% 30.26 in 10.0 mi North 4.6 mph - N/A   Overcast
9:54 PM 45.0 °F 41.8 °F 30.9 °F 58% 30.27 in 10.0 mi North 5.8 mph - N/A   Overcast
10:54 PM 42.1 °F 37.7 °F 30.9 °F 65% 30.28 in 10.0 mi North 6.9 mph - N/A   Mostly Cloudy
11:54 PM 41.0 °F - 30.9 °F 67% 30.27 in 10.0 mi Calm Calm - N/A   Overcast